This is the latest recevied weather packets stored in our database for station/object KN6WGU. If no packets are shown the sender has not sent any weather packets the latest 10 day(s).
| Time | Temp. | Humidity | Pressure | Rain* | Wind** | Luminosity | Snow |
|---|---|---|---|---|---|---|---|
| 1787763553 | 26.11° C | 60% | 1008.7 hPa | 0 mm | - | 135 W/m² | - |
| 1787763249 | 26.11° C | 60% | 1009.2 hPa | 0 mm | - | 157 W/m² | - |
| 1787762943 | 26.11° C | 61% | 1009.2 hPa | 0 mm | - | 141 W/m² | - |
| 1787762643 | 26.11° C | 60% | 1009.1 hPa | 0 mm | - | 164 W/m² | - |
| 1787762340 | 25.56° C | 56% | 1009.3 hPa | 0 mm | - | 163 W/m² | - |
| 1787762039 | 25.56° C | 59% | 1009.2 hPa | 0 mm | - | 130 W/m² | - |
| 1787761734 | 25.56° C | 62% | 1009.3 hPa | 0 mm | - | 88 W/m² | - |
| 1787761429 | 25° C | 59% | 1009.7 hPa | 0 mm | - | 75 W/m² | - |
| 1787761124 | 25° C | 60% | 1009.5 hPa | 0 mm | - | 64 W/m² | - |
| 1787760824 | 25° C | 60% | 1009.8 hPa | 0 mm | - | 60 W/m² | - |
| 1787760521 | 25° C | 60% | 1009.5 hPa | 0 mm | - | 61 W/m² | - |
| 1787760216 | 24.44° C | 62% | 1009.5 hPa | 0 mm | - | 57 W/m² | - |
| 1787759913 | 24.44° C | 61% | 1009.5 hPa | 0 mm | - | 52 W/m² | - |
| 1787759608 | 24.44° C | 62% | 1009.7 hPa | 0 mm | - | 54 W/m² | - |
| 1787759304 | 24.44° C | 66% | 1009.7 hPa | 0 mm | - | 51 W/m² | - |
| 1787758998 | 23.89° C | 65% | 1009.5 hPa | 0 mm | - | 49 W/m² | - |
| 1787758698 | 24.44° C | 65% | 1009.7 hPa | 0 mm | - | 49 W/m² | - |
| 1787758393 | 23.89° C | 66% | 1009.6 hPa | 0 mm | - | 45 W/m² | - |
| 1787758092 | 23.89° C | 65% | 1009.6 hPa | 0 mm | - | 47 W/m² | - |
| 1787757788 | 23.33° C | 68% | 1009.6 hPa | 0 mm | - | 47 W/m² | - |
| 1787757483 | 23.33° C | 64% | 1009.5 hPa | 0 mm | - | 45 W/m² | - |
| 1787757178 | 23.33° C | 69% | 1009.3 hPa | 0 mm | - | 54 W/m² | - |
| 1787756876 | 23.33° C | 68% | 1009.4 hPa | 0 mm | - | 59 W/m² | - |
| 1787756573 | 22.78° C | 70% | 1009.6 hPa | 0 mm | - | 68 W/m² | - |
| 1787756271 | 22.78° C | 70% | 1009.6 hPa | 0 mm | - | 77 W/m² | - |
* Rain latest hour (hover to see other rain measurements)
** Current wind speed in m/s (hover to see current wind gust speed)